WX1N Weather Reports


Display with metric or nautical units.
time (UTC)temp
F
wind
direction
speed
MPH
gust
MPH
rain 1hr
in
rain 24hr
in
rain mn
in
humidity
%
barometer
mb
20260903222503 74 0 0.0 0.0 0.00 0.00 0.00 78 1009.8
20260903222003 74 0 0.0 0.0 0.00 0.00 0.00 78 1009.9
20260903221503 74 0 0.0 0.0 0.00 0.00 0.00 79 1009.8
20260903221002 74 0 0.0 0.0 0.00 0.00 0.00 79 1010.0
20260903220502 74 0 0.0 0.0 0.00 0.00 0.00 79 1010.0
20260903220002 74 0 0.0 0.0 0.00 0.00 0.00 79 1010.2
20260903215502 74 0 0.0 0.0 0.00 0.00 0.00 80 1010.3
20260903215002 75 0 0.0 0.0 0.00 0.00 0.00 80 1010.3
20260903214503 75 0 0.0 0.0 0.00 0.00 0.00 80 1010.4
20260903214003 75 0 0.0 0.0 0.00 0.00 0.00 80 1010.5
20260903213503 75 0 0.0 0.0 0.00 0.00 0.00 80 1010.5
20260903213003 75 0 0.0 0.0 0.00 0.00 0.00 80 1010.3
20260903212503 75 0 0.0 0.0 0.00 0.00 0.00 80 1010.3
20260903212003 75 0 0.0 0.0 0.00 0.00 0.00 80 1010.4
20260903211503 75 0 0.0 0.0 0.00 0.00 0.00 80 1010.2
20260903211002 75 0 0.0 0.0 0.00 0.00 0.00 80 1010.2
20260903210502 75 0 0.0 0.0 0.00 0.00 0.00 81 1010.3
20260903210002 76 0 0.0 0.0 0.00 0.00 0.00 81 1010.2
20260903205503 76 0 0.0 0.0 0.00 0.00 0.00 81 1010.3
20260903205003 76 0 0.0 0.0 0.00 0.00 0.00 80 1010.4
20260903204503 76 0 0.0 0.0 0.00 0.00 0.00 81 1010.4
20260903204003 76 0 0.0 0.0 0.00 0.00 0.00 80 1010.3
20260903203503 76 0 0.0 0.0 0.00 0.00 0.00 80 1010.3
20260903203003 76 0 0.0 0.0 0.00 0.00 0.00 80 1010.4
20260903202502 76 0 0.0 0.0 0.00 0.00 0.00 81 1010.5
20260903202002 77 0 0.0 0.0 0.00 0.00 0.00 80 1010.5
20260903201502 77 0 0.0 0.0 0.00 0.00 0.00 80 1010.5
20260903201002 77 0 0.0 0.0 0.00 0.00 0.00 79 1010.5
20260903200503 78 0 0.0 0.0 0.00 0.00 0.00 79 1010.5
20260903200003 79 0 0.0 0.0 0.00 0.00 0.00 77 1010.6
20260903195503 79 0 0.0 0.0 0.00 0.00 0.00 77 1010.6
20260903195003 80 0 0.0 0.0 0.00 0.00 0.00 76 1010.8
20260903194503 80 0 0.0 0.0 0.00 0.00 0.00 74 1010.9
20260903194003 81 0 0.0 0.0 0.00 0.00 0.00 73 1011.0
20260903193503 82 0 0.0 0.0 0.00 0.00 0.00 71 1011.0
20260903193003 83 0 0.0 0.0 0.00 0.00 0.00 70 1010.9
20260903192503 84 0 0.0 0.0 0.00 0.00 0.00 68 1011.1
20260903192002 84 0 0.0 0.0 0.00 0.00 0.00 70 1011.1
20260903191502 84 0 0.0 0.0 0.00 0.00 0.00 69 1011.2
20260903191003 83 0 0.0 0.0 0.00 0.00 0.00 71 1011.3
20260903190503 83 0 0.0 0.0 0.00 0.00 0.00 71 1011.3
20260903190003 82 0 0.0 0.0 0.00 0.00 0.00 73 1011.3
20260903185503 82 0 0.0 0.0 0.00 0.00 0.00 74 1011.3
20260903185003 82 0 0.0 0.0 0.00 0.00 0.00 74 1011.3
20260903184503 81 0 0.0 0.0 0.00 0.00 0.00 74 1011.4
20260903184003 80 0 0.0 0.0 0.00 0.00 0.00 75 1011.4
20260903183503 79 0 0.0 0.0 0.00 0.00 0.00 76 1011.5
20260903183002 78 0 0.0 0.0 0.00 0.00 0.00 77 1011.6
20260903182503 77 0 0.0 0.0 0.00 0.00 0.00 79 1011.7
20260903182002 75 0 0.0 0.0 0.00 0.00 0.00 80 1011.7
20260903181502 74 0 0.0 0.0 0.00 0.00 0.00 80 1011.8
20260903181002 74 0 0.0 0.0 0.00 0.00 0.00 80 1011.8
20260903180503 73 0 0.0 0.0 0.00 0.00 0.00 80 1011.9
20260903180003 73 0 0.0 0.0 0.00 0.00 0.00 79 1012.0
20260903175503 72 0 0.0 0.0 0.00 0.00 0.00 80 1012.1
20260903175003 73 0 0.0 0.0 0.00 0.00 0.00 80 1012.2
20260903174503 73 0 0.0 0.0 0.00 0.00 0.00 79 1012.2
20260903174002 72 0 0.0 0.0 0.00 0.00 0.00 79 1012.2
20260903173502 72 0 0.0 0.0 0.00 0.00 0.00 78 1012.3
20260903173003 71 0 0.0 0.0 0.00 0.00 0.00 78 1012.3
20260903172503 71 0 0.0 0.0 0.00 0.00 0.00 80 1012.3
20260903172003 71 0 0.0 0.0 0.00 0.00 0.00 79 1012.5
20260903171503 71 0 0.0 0.0 0.00 0.00 0.00 79 1012.4
20260903171003 71 0 0.0 0.0 0.00 0.00 0.00 80 1012.5
20260903170503 71 0 0.0 0.0 0.00 0.00 0.00 79 1012.6
20260903170002 71 0 0.0 0.0 0.00 0.00 0.00 80 1012.7
20260903165502 71 0 0.0 0.0 0.00 0.00 0.00 79 1012.7
20260903165003 71 0 0.0 0.0 0.00 0.00 0.00 78 1012.7
20260903164503 71 0 0.0 0.0 0.00 0.00 0.00 77 1012.7
20260903164003 70 0 0.0 0.0 0.00 0.00 0.00 73 1012.7
20260903163503 70 0 0.0 0.0 0.00 0.00 0.00 75 1012.7
20260903163003 69 0 0.0 0.0 0.00 0.00 0.00 73 1012.6
20260903162503 69 0 0.0 0.0 0.00 0.00 0.00 73 1012.6
20260903162002 68 0 0.0 0.0 0.00 0.00 0.00 76 1012.8
20260903161502 68 0 0.0 0.0 0.00 0.00 0.00 74 1012.8
20260903161002 68 0 0.0 0.0 0.00 0.00 0.00 74 1012.9
20260903160503 69 0 0.0 0.0 0.00 0.00 0.00 72 1013.0
20260903160003 68 0 0.0 0.0 0.00 0.00 0.00 70 1013.0
20260903155503 68 0 0.0 0.0 0.00 0.00 0.00 71 1012.9
20260903155003 68 0 0.0 0.0 0.00 0.00 0.00 69 1012.9
20260903154503 68 0 0.0 0.0 0.00 0.00 0.00 70 1013.0
20260903154002 67 0 0.0 0.0 0.00 0.00 0.00 69 1013.1
20260903153502 67 0 0.0 0.0 0.00 0.00 0.00 69 1013.1
20260903153003 67 0 0.0 0.0 0.00 0.00 0.00 70 1013.2
20260903152503 67 0 0.0 0.0 0.00 0.00 0.00 68 1013.2
20260903152003 67 0 0.0 0.0 0.00 0.00 0.00 66 1013.3
20260903151503 67 0 0.0 0.0 0.00 0.00 0.00 65 1013.4
20260903151003 67 0 0.0 0.0 0.00 0.00 0.00 67 1013.4
20260903150503 67 0 0.0 0.0 0.00 0.00 0.00 67 1013.4
20260903150003 67 0 0.0 0.0 0.00 0.00 0.00 66 1013.4
20260903145503 66 0 0.0 0.0 0.00 0.00 0.00 62 1013.5
20260903145003 66 0 0.0 0.0 0.00 0.00 0.00 60 1013.4
20260903144502 66 0 0.0 0.0 0.00 0.00 0.00 62 1013.6
20260903144002 66 0 0.0 0.0 0.00 0.00 0.00 60 1013.5
20260903143503 66 0 0.0 0.0 0.00 0.00 0.00 62 1013.5
20260903143003 66 0 0.0 0.0 0.00 0.00 0.00 59 1013.6
20260903142503 66 0 0.0 0.0 0.00 0.00 0.00 57 1013.6
20260903142003 66 0 0.0 0.0 0.00 0.00 0.00 55 1013.7
20260903141503 66 0 0.0 0.0 0.00 0.00 0.00 56 1013.7
20260903141003 65 0 0.0 0.0 0.00 0.00 0.00 54 1013.7
20260903140503 65 0 0.0 0.0 0.00 0.00 0.00 51 1013.7
20260903140002 65 0 0.0 0.0 0.00 0.00 0.00 49 1013.6
20260903135502 65 0 0.0 0.0 0.00 0.00 0.00 50 1013.7
20260903135003 65 0 0.0 0.0 0.00 0.00 0.00 51 1013.6
20260903134503 65 0 0.0 0.0 0.00 0.00 0.00 51 1013.6
20260903134003 65 0 0.0 0.0 0.00 0.00 0.00 49 1013.6
20260903133503 65 0 0.0 0.0 0.00 0.00 0.00 48 1013.7
20260903133003 65 0 0.0 0.0 0.00 0.00 0.00 48 1013.6
20260903132503 65 0 0.0 0.0 0.00 0.00 0.00 46 1013.6
20260903132003 64 0 0.0 0.0 0.00 0.00 0.00 45 1013.6
20260903131503 64 0 0.0 0.0 0.00 0.00 0.00 44 1013.6
20260903131002 64 0 0.0 0.0 0.00 0.00 0.00 44 1013.6
20260903130502 64 0 0.0 0.0 0.00 0.00 0.00 44 1013.6
20260903130003 64 0 0.0 0.0 0.00 0.00 0.00 43 1013.6
20260903125503 64 0 0.0 0.0 0.00 0.00 0.00 42 1013.7
20260903125003 64 0 0.0 0.0 0.00 0.00 0.00 42 1013.7
20260903124503 64 0 0.0 0.0 0.00 0.00 0.00 42 1013.8
20260903124003 64 0 0.0 0.0 0.00 0.00 0.00 42 1013.8
20260903123504 64 0 0.0 0.0 0.00 0.00 0.00 41 1013.8
20260903123003 64 0 0.0 0.0 0.00 0.00 0.00 40 1013.8
20260903122503 63 0 0.0 0.0 0.00 0.00 0.00 40 1013.8
20260903122003 63 0 0.0 0.0 0.00 0.00 0.00 39 1013.8
20260903121502 63 0 0.0 0.0 0.00 0.00 0.00 40 1013.9
20260903121002 63 0 0.0 0.0 0.00 0.00 0.00 40 1014.0
20260903120502 63 0 0.0 0.0 0.00 0.00 0.00 41 1014.0
20260903120003 63 0 0.0 0.0 0.00 0.00 0.00 41 1014.0
20260903115503 62 0 0.0 0.0 0.00 0.00 0.00 41 1014.0
20260903115003 62 0 0.0 0.0 0.00 0.00 0.00 41 1014.1
20260903114503 62 0 0.0 0.0 0.00 0.00 0.00 41 1014.1
20260903114003 62 0 0.0 0.0 0.00 0.00 0.00 41 1014.2
20260903113503 62 0 0.0 0.0 0.00 0.00 0.00 41 1014.1
20260903113003 62 0 0.0 0.0 0.00 0.00 0.00 41 1014.1
20260903112503 62 0 0.0 0.0 0.00 0.00 0.00 41 1014.2
20260903112003 62 0 0.0 0.0 0.00 0.00 0.00 42 1014.3
20260903111502 62 0 0.0 0.0 0.00 0.00 0.00 42 1014.2
20260903111003 62 0 0.0 0.0 0.00 0.00 0.00 42 1014.1
20260903110503 62 0 0.0 0.0 0.00 0.00 0.00 42 1014.2
20260903110003 62 0 0.0 0.0 0.00 0.00 0.00 42 1014.3
20260903105503 62 0 0.0 0.0 0.00 0.00 0.00 42 1014.2
20260903105003 62 0 0.0 0.0 0.00 0.00 0.00 42 1014.3
20260903104503 62 0 0.0 0.0 0.00 0.00 0.00 43 1014.2
20260903104004 62 0 0.0 0.0 0.00 0.00 0.00 44 1014.1
20260903103503 62 0 0.0 0.0 0.00 0.00 0.00 44 1014.1
20260903103002 62 0 0.0 0.0 0.00 0.00 0.00 44 1014.0
20260903102502 62 0 0.0 0.0 0.00 0.00 0.00 44 1014.0
20260903102003 62 0 0.0 0.0 0.00 0.00 0.00 44 1014.0
20260903101503 62 0 0.0 0.0 0.00 0.00 0.00 44 1014.0
20260903101003 62 0 0.0 0.0 0.00 0.00 0.00 43 1014.1
20260903100503 61 0 0.0 0.0 0.00 0.00 0.00 44 1014.2
20260903100003 61 0 0.0 0.0 0.00 0.00 0.00 44 1014.1
20260903095503 61 0 0.0 0.0 0.00 0.00 0.00 46 1014.1
20260903095003 61 0 0.0 0.0 0.00 0.00 0.00 46 1014.1
20260903094503 61 0 0.0 0.0 0.00 0.00 0.00 46 1014.2
20260903094003 61 0 0.0 0.0 0.00 0.00 0.00 46 1014.1
20260903093503 61 0 0.0 0.0 0.00 0.00 0.00 46 1014.1
20260903093003 61 0 0.0 0.0 0.00 0.00 0.00 47 1014.1
20260903092503 61 0 0.0 0.0 0.00 0.00 0.00 47 1014.0
20260903092003 61 0 0.0 0.0 0.00 0.00 0.00 47 1014.2
20260903091503 61 0 0.0 0.0 0.00 0.00 0.00 48 1014.2
20260903091003 61 0 0.0 0.0 0.00 0.00 0.00 48 1014.2
20260903090504 61 0 0.0 0.0 0.00 0.00 0.00 47 1014.2
20260903090003 61 0 0.0 0.0 0.00 0.00 0.00 47 1014.3
20260903085503 61 0 0.0 0.0 0.00 0.00 0.00 48 1014.4
20260903085003 61 0 0.0 0.0 0.00 0.00 0.00 49 1014.5
20260903084503 61 0 0.0 0.0 0.00 0.00 0.00 49 1014.4
20260903084004 61 0 0.0 0.0 0.00 0.00 0.00 49 1014.7
20260903083503 61 0 0.0 0.0 0.00 0.00 0.00 49 1014.7
20260903083003 61 0 0.0 0.0 0.00 0.00 0.00 49 1014.8
20260903082503 61 0 0.0 0.0 0.00 0.00 0.00 49 1014.8
20260903082003 61 0 0.0 0.0 0.00 0.00 0.00 49 1014.8
20260903081502 61 0 0.0 0.0 0.00 0.00 0.00 50 1014.8
20260903081003 61 0 0.0 0.0 0.00 0.00 0.00 50 1014.8
20260903080503 61 0 0.0 0.0 0.00 0.00 0.00 50 1014.7
20260903080003 61 0 0.0 0.0 0.00 0.00 0.00 51 1014.6
20260903075503 61 0 0.0 0.0 0.00 0.00 0.00 52 1014.7
20260903075003 61 0 0.0 0.0 0.00 0.00 0.00 52 1014.8
20260903074503 61 0 0.0 0.0 0.00 0.00 0.00 52 1014.9
20260903074003 61 0 0.0 0.0 0.00 0.00 0.00 54 1014.9
20260903073503 61 0 0.0 0.0 0.00 0.00 0.00 55 1014.9
20260903073003 61 0 0.0 0.0 0.00 0.00 0.00 55 1015.0
20260903072502 62 0 0.0 0.0 0.00 0.00 0.00 56 1015.0
20260903072003 62 0 0.0 0.0 0.00 0.00 0.00 56 1015.1
20260903071503 62 0 0.0 0.0 0.00 0.00 0.00 56 1015.2
20260903071003 62 0 0.0 0.0 0.00 0.00 0.00 57 1015.1
20260903070503 62 0 0.0 0.0 0.00 0.00 0.00 58 1015.1
20260903070003 62 0 0.0 0.0 0.00 0.00 0.00 58 1015.3
20260903065503 62 0 0.0 0.0 0.00 0.00 0.00 59 1015.3
20260903065002 62 0 0.0 0.0 0.00 0.00 0.00 62 1015.2
20260903064503 62 0 0.0 0.0 0.00 0.00 0.00 63 1015.1
20260903064003 62 0 0.0 0.0 0.00 0.00 0.00 64 1015.1
20260903063503 62 0 0.0 0.0 0.00 0.00 0.00 65 1015.1
20260903063003 62 0 0.0 0.0 0.00 0.00 0.00 67 1015.0
20260903062503 62 0 0.0 0.0 0.00 0.00 0.00 68 1015.1
20260903062003 62 0 0.0 0.0 0.00 0.00 0.00 69 1015.2
20260903061503 62 0 0.0 0.0 0.00 0.00 0.00 72 1015.2
20260903061003 62 0 0.0 0.0 0.00 0.00 0.00 74 1015.3
20260903060503 62 0 0.0 0.0 0.00 0.00 0.00 77 1015.4
20260903060002 63 0 0.0 0.0 0.00 0.00 0.00 78 1015.4
20260903055503 63 0 0.0 0.0 0.00 0.00 0.00 79 1015.6
20260903055003 63 0 0.0 0.0 0.00 0.00 0.00 81 1015.7
20260903054503 63 0 0.0 0.0 0.00 0.00 0.00 81 1015.8
20260903054003 63 0 0.0 0.0 0.00 0.00 0.00 82 1016.0
20260903053503 63 0 0.0 0.0 0.00 0.00 0.00 82 1015.9
20260903053003 63 0 0.0 0.0 0.00 0.00 0.00 82 1016.1
20260903052503 64 0 0.0 0.0 0.00 0.00 0.00 83 1016.0
20260903052003 64 0 0.0 0.0 0.00 0.00 0.00 82 1015.9
20260903051503 64 0 0.0 0.0 0.00 0.00 0.00 82 1015.8
20260903051002 64 0 0.0 0.0 0.00 0.00 0.00 82 1016.0
20260903050503 65 0 0.0 0.0 0.00 0.00 0.00 82 1016.2
20260903050003 65 0 0.0 0.0 0.00 0.00 0.00 82 1016.3
20260903045503 65 0 0.0 0.0 0.00 0.00 0.00 82 1016.4
20260903045003 65 0 0.0 0.0 0.00 0.00 0.00 81 1016.2
20260903044503 65 0 0.0 0.0 0.00 0.00 0.00 81 1016.2
20260903044003 65 0 0.0 0.0 0.00 0.00 0.00 81 1016.2
20260903043503 65 0 0.0 0.0 0.00 0.00 0.00 81 1016.3
20260903043003 65 0 0.0 0.0 0.00 0.00 0.00 81 1016.2
20260903042503 65 0 0.0 0.0 0.00 0.00 0.00 81 1016.1
20260903042003 65 0 0.0 0.0 0.00 0.00 0.00 81 1016.0
20260903041503 65 0 0.0 0.0 0.00 0.00 0.00 81 1016.1
20260903041003 65 0 0.0 0.0 0.00 0.00 0.00 81 1016.2
20260903040503 65 0 0.0 0.0 0.00 0.00 0.00 82 1016.3
20260903040003 65 0 0.0 0.0 0.00 0.00 0.00 82 1016.3
20260903035503 65 0 0.0 0.0 0.00 0.00 0.00 82 1016.3
20260903035003 65 0 0.0 0.0 0.00 0.00 0.00 82 1016.4
20260903034504 65 0 0.0 0.0 0.00 0.00 0.00 82 1016.4
20260903034003 65 0 0.0 0.0 0.00 0.00 0.00 82 1016.5
20260903033503 65 0 0.0 0.0 0.00 0.00 0.00 82 1016.5
20260903033003 65 0 0.0 0.0 0.00 0.00 0.00 82 1016.6
20260903032504 65 0 0.0 0.0 0.00 0.00 0.00 82 1016.7
20260903032003 65 0 0.0 0.0 0.00 0.00 0.00 82 1016.9
20260903031503 65 0 0.0 0.0 0.00 0.00 0.00 82 1017.0
20260903030503 65 0 0.0 0.0 0.00 0.00 0.00 82 1017.2
20260903030003 65 0 0.0 0.0 0.00 0.00 0.00 82 1017.3
20260903025503 65 0 0.0 0.0 0.00 0.00 0.00 82 1017.2
20260903025003 65 0 0.0 0.0 0.00 0.00 0.00 82 1017.2
20260903024503 65 0 0.0 0.0 0.00 0.00 0.00 82 1017.3
20260903024003 65 0 0.0 0.0 0.00 0.00 0.00 81 1017.2
20260903023503 65 0 0.0 0.0 0.00 0.00 0.00 81 1017.2
20260903023003 65 0 0.0 0.0 0.00 0.00 0.00 81 1017.1
20260903022504 65 0 0.0 0.0 0.00 0.00 0.00 81 1017.1
20260903022004 65 0 0.0 0.0 0.00 0.00 0.00 81 1017.0
20260903021503 65 0 0.0 0.0 0.00 0.00 0.00 81 1017.2
20260903021003 65 0 0.0 0.0 0.00 0.00 0.00 81 1017.2
20260903020503 65 0 0.0 0.0 0.00 0.00 0.00 81 1017.4
20260903020003 65 0 0.0 0.0 0.00 0.00 0.00 80 1017.5
20260903015503 65 0 0.0 0.0 0.00 0.00 0.00 81 1017.6
20260903015003 65 0 0.0 0.0 0.00 0.00 0.00 81 1017.6
20260903014503 65 0 0.0 0.0 0.00 0.00 0.00 81 1017.7
20260903014003 65 0 0.0 0.0 0.00 0.00 0.00 81 1017.7
20260903013503 65 0 0.0 0.0 0.00 0.00 0.00 81 1017.9
20260903013003 66 0 0.0 0.0 0.00 0.00 0.00 81 1018.0
20260903012503 66 0 0.0 0.0 0.00 0.00 0.00 80 1017.9
20260903012003 66 0 0.0 0.0 0.00 0.00 0.00 80 1017.9
20260903011503 66 0 0.0 0.0 0.00 0.00 0.00 81 1017.8
20260903011003 66 0 0.0 0.0 0.00 0.00 0.00 80 1017.6
20260903010503 66 0 0.0 0.0 0.00 0.00 0.00 80 1017.7
20260903010003 66 0 0.0 0.0 0.00 0.00 0.00 80 1017.7
20260903005503 66 0 0.0 0.0 0.00 0.00 0.00 79 1017.7
20260903005003 66 0 0.0 0.0 0.00 0.00 0.00 80 1017.6
20260903004504 66 0 0.0 0.0 0.00 0.00 0.00 80 1017.5
20260903004003 66 0 0.0 0.0 0.00 0.00 0.00 80 1017.5
20260903003503 66 0 0.0 0.0 0.00 0.00 0.00 80 1017.5
20260903003004 66 0 0.0 0.0 0.00 0.00 0.00 80 1017.4
20260903002504 66 0 0.0 0.0 0.00 0.00 0.00 80 1017.4
20260903002003 66 0 0.0 0.0 0.00 0.00 0.00 80 1017.1
20260903001503 66 0 0.0 0.0 0.00 0.00 0.00 80 1017.2
20260903001003 66 0 0.0 0.0 0.00 0.00 0.00 80 1017.0
20260903000503 66 0 0.0 0.0 0.00 0.00 0.00 80 1017.0
20260903000003 66 0 0.0 0.0 0.00 0.00 0.00 80 1017.0
20260902235503 66 0 0.0 0.0 0.00 0.00 0.00 81 1017.2
20260902235004 66 0 0.0 0.0 0.00 0.00 0.00 81 1017.0
20260902234504 66 0 0.0 0.0 0.00 0.00 0.00 81 1016.9
20260902234003 66 0 0.0 0.0 0.00 0.00 0.00 81 1016.9
20260902233503 66 0 0.0 0.0 0.00 0.00 0.00 80 1017.1
20260902233003 66 0 0.0 0.0 0.00 0.00 0.00 80 1017.3
20260902232503 66 0 0.0 0.0 0.00 0.00 0.00 79 1017.4
20260902232003 66 0 0.0 0.0 0.00 0.00 0.00 78 1017.6
20260902231503 66 0 0.0 0.0 0.00 0.00 0.00 76 1017.9
20260902231003 67 0 0.0 0.0 0.00 0.00 0.00 74 1018.1
20260902230503 67 0 0.0 0.0 0.00 0.00 0.00 75 1018.3
20260902230004 67 0 0.0 0.0 0.00 0.00 0.00 75 1018.4
20260902225504 67 0 0.0 0.0 0.00 0.00 0.00 76 1018.6
20260902225003 67 0 0.0 0.0 0.00 0.00 0.00 77 1018.7
20260902224503 67 0 0.0 0.0 0.00 0.00 0.00 78 1018.8
20260902224003 68 0 0.0 0.0 0.00 0.00 0.00 78 1018.9
20260902223503 68 0 0.0 0.0 0.00 0.00 0.00 78 1018.9
20260902223003 68 0 0.0 0.0 0.00 0.00 0.00 79 1019.0